Location: Ithaca
(42.4410°N, 76.4970°W)
Time: 05:29:06
(UTC-04:00)

Hubble Space Telescope - Visible Passes

Search period start: 19 April 2015 00:00
Search period end: 29 April 2015 00:00
Orbit: 543 x 546 km, 28.5° (Epoch: 18 April)

Date Brightness Start Highest point End Pass type
(mag) Time Alt. Az. Time Alt. Az. Time Alt. Az.
19 Apr 3.0 05:07:01 11° SSW 05:08:10 12° S 05:09:41 10° SSE visible
20 Apr 2.9 04:58:57 11° S 04:59:31 12° S 05:01:03 10° SSE visible
21 Apr 3.0 04:50:55 12° S 04:50:55 12° S 04:52:18 10° SSE visible
22 Apr 3.1 04:42:57 11° S 04:42:57 11° S 04:43:22 10° S visible
